Weather History for Burlington, CO

Change the Weather History Date:

Monday, November 19, 2012

  Actual Average Record
Temperature  
Mean Temperature 47 °F 37 °F  
Max Temperature 67 °F 51 °F 81 °F (2007)
Min Temperature 27 °F 22 °F 3 °F (1937)
Degree Days  
Heating Degree Days 18    
Moisture  
Dew Point 23 °F    
Average Humidity 47    
Maximum Humidity 75    
Minimum Humidity 21    
Precipitation  
Precipitation 0.00 in 0.02 in 1.00 in (1975)
Month to date precipitation T 0.46  
Year to date precipitation 10.56 16.90  
Sea Level Pressure  
Sea Level Pressure 30.17 in    
Wind  
Wind Speed 7 mph (West)    
Max Wind Speed 10 mph    
Max Gust Speed -    
Visibility 10 miles    
Events      
T = Trace of Precipitation, MM = Missing Value Source: NWS Daily Summary

Daily Weather History Graph

Daily Weather History Graph

Search for Another Location

Airport:

Trip Planner

Search our weather history database for the weather conditions in past years. The results will help you decide how hot, cold, wet, or windy it might be!

Date:

Astronomy

Nov. 19, 2012 Rise Set
Actual Time 6:37 AM MST 4:31 PM MST
Civil Twilight 6:08 AM MST 5:00 PM MST
Nautical Twilight 5:36 AM MST 5:32 PM MST
Astronomical Twilight 5:04 AM MST 6:04 PM MST
Moon 11:42 AM MST (11/19) 10:59 PM MST (11/19)
Length of Visible Light 10h 51m
Length of Day
9h 53m
Waxing Crescent, 41% of the Moon is Illuminated
Nov 19
Waxing Crescent
Nov 20
First Quarter
Nov 28
Full
Dec 6
Last Quarter
Dec 13
New

Hourly Weather History & Observations

Time (MST) Temp. Windchill Dew Point Humidity Pressure Visibility Wind Dir Wind Speed Gust Speed Precip Events Conditions
1:53 AM 34.0 °F 26.6 °F 21.9 °F 61% 30.05 in 10.0 mi WNW 9.2 mph - N/A   Clear
2:53 AM 30.9 °F 23.5 °F 21.0 °F 67% 30.07 in 10.0 mi West 8.1 mph - N/A   Clear
3:53 AM 28.9 °F 22.8 °F 19.9 °F 69% 30.09 in 10.0 mi West 5.8 mph - N/A   Clear
4:53 AM 28.9 °F 21.9 °F 21.0 °F 72% 30.13 in 10.0 mi West 6.9 mph - N/A   Clear
5:53 AM 27.0 °F 18.7 °F 19.9 °F 75% 30.17 in 10.0 mi West 8.1 mph - N/A   Clear
6:53 AM 27.0 °F 21.6 °F 19.9 °F 75% 30.21 in 10.0 mi West 4.6 mph - N/A   Partly Cloudy
7:53 AM 39.9 °F 35.8 °F 26.1 °F 58% 30.21 in 10.0 mi WNW 5.8 mph - N/A   Clear
8:53 AM 53.1 °F - 28.0 °F 38% 30.19 in 10.0 mi NW 5.8 mph - N/A   Clear
9:53 AM 59.0 °F - 28.0 °F 31% 30.19 in 10.0 mi North 9.2 mph - N/A   Clear
10:53 AM 63.0 °F - 27.0 °F 26% 30.17 in 10.0 mi North 8.1 mph - N/A   Clear
11:53 AM 64.9 °F - 26.1 °F 23% 30.16 in 10.0 mi NNW 8.1 mph - N/A   Clear
12:53 PM 64.9 °F - 25.0 °F 22% 30.14 in 10.0 mi Calm Calm - N/A   Clear
1:53 PM 66.0 °F - 25.0 °F 21% 30.13 in 10.0 mi West 5.8 mph - N/A   Clear
2:53 PM 66.9 °F - 25.0 °F 21% 30.13 in 10.0 mi WSW 6.9 mph - N/A   Clear
3:53 PM 59.0 °F - 25.0 °F 27% 30.17 in 10.0 mi South 9.2 mph - N/A   Clear
4:53 PM 51.1 °F - 24.1 °F 35% 30.20 in 10.0 mi SSW 9.2 mph - N/A   Clear
5:53 PM 46.9 °F - 23.0 °F 39% 30.24 in 10.0 mi SSW 10.4 mph - N/A   Clear
6:53 PM 39.9 °F 35.1 °F 21.9 °F 49% 30.26 in 10.0 mi WSW 6.9 mph - N/A   Clear
7:53 PM 36.0 °F 32.1 °F 21.0 °F 55% 30.25 in 10.0 mi NE 4.6 mph - N/A   Clear
8:53 PM 33.1 °F 27.7 °F 19.9 °F 59% 30.23 in 10.0 mi East 5.8 mph - N/A   Clear
9:53 PM 41.0 °F 38.0 °F 21.9 °F 47% 30.19 in 10.0 mi South 4.6 mph - N/A   Clear
10:53 PM 37.0 °F 33.3 °F 21.9 °F 54% 30.18 in 10.0 mi SW 4.6 mph - N/A   Clear
11:53 PM 30.9 °F 23.5 °F 19.9 °F 64% 30.19 in 10.0 mi WSW 8.1 mph - N/A   Clear